TimeCDT,TemperatureF,Dew PointF,Humidity,Sea Level PressureIn,VisibilityMPH,Wind Direction,Wind SpeedMPH,Gust SpeedMPH,PrecipitationIn,Events,Conditions,WindDirDegrees,DateUTC
12:15 AM,39.2,26.6,61,30.32,10.0,WNW,9.2,-,N/A,,Clear,300,2012-10-05 05:15:00
12:35 AM,39.2,26.6,61,30.32,10.0,NW,6.9,-,N/A,,Clear,310,2012-10-05 05:35:00
12:55 AM,39.2,26.6,61,30.32,10.0,NW,6.9,-,N/A,,Clear,310,2012-10-05 05:55:00
1:15 AM,37.4,24.8,60,30.32,10.0,NNW,4.6,-,N/A,,Clear,330,2012-10-05 06:15:00
1:35 AM,35.6,24.8,65,30.32,10.0,NW,3.5,-,N/A,,Clear,320,2012-10-05 06:35:00
1:55 AM,35.6,24.8,65,30.32,10.0,Calm,Calm,-,N/A,,Clear,0,2012-10-05 06:55:00
2:15 AM,33.8,24.8,70,30.32,10.0,NNW,3.5,-,N/A,,Clear,330,2012-10-05 07:15:00
2:35 AM,33.8,24.8,70,30.32,10.0,WNW,3.5,-,N/A,,Clear,290,2012-10-05 07:35:00
2:55 AM,30.2,21.2,69,30.32,10.0,WNW,4.6,-,N/A,,Clear,300,2012-10-05 07:55:00
3:15 AM,30.2,21.2,69,30.32,10.0,WNW,3.5,-,N/A,,Clear,290,2012-10-05 08:15:00
3:35 AM,30.2,21.2,69,30.31,10.0,West,3.5,-,N/A,,Clear,270,2012-10-05 08:35:00
3:55 AM,32.0,24.8,75,30.31,10.0,West,5.8,-,N/A,,Clear,260,2012-10-05 08:55:00
4:15 AM,33.8,24.8,70,30.32,10.0,WSW,4.6,-,N/A,,Clear,250,2012-10-05 09:15:00
4:35 AM,32.0,24.8,75,30.32,10.0,West,4.6,-,N/A,,Clear,280,2012-10-05 09:35:00
4:55 AM,32.0,23.0,69,30.31,10.0,WNW,4.6,-,N/A,,Clear,290,2012-10-05 09:55:00
5:15 AM,33.8,24.8,70,30.30,10.0,West,4.6,-,N/A,,Clear,280,2012-10-05 10:15:00
5:35 AM,33.8,24.8,70,30.31,10.0,WSW,3.5,-,N/A,,Clear,250,2012-10-05 10:35:00
5:55 AM,33.8,24.8,70,30.30,10.0,WNW,3.5,-,N/A,,Clear,290,2012-10-05 10:55:00
6:15 AM,33.8,24.8,70,30.32,10.0,West,5.8,-,N/A,,Clear,260,2012-10-05 11:15:00
6:35 AM,33.8,24.8,70,30.31,10.0,WNW,5.8,-,N/A,,Clear,290,2012-10-05 11:35:00
6:55 AM,33.8,24.8,70,30.32,10.0,West,5.8,-,N/A,,Clear,280,2012-10-05 11:55:00
7:15 AM,35.6,24.8,65,30.33,10.0,WNW,4.6,-,N/A,,Clear,290,2012-10-05 12:15:00
7:35 AM,35.6,24.8,65,30.33,10.0,WNW,6.9,-,N/A,,Clear,290,2012-10-05 12:35:00
7:55 AM,35.6,26.6,70,30.34,10.0,WNW,5.8,-,N/A,,Partly Cloudy,290,2012-10-05 12:55:00
8:15 AM,35.6,26.6,70,30.34,10.0,West,6.9,-,N/A,,Scattered Clouds,280,2012-10-05 13:15:00
8:35 AM,35.6,26.6,70,30.34,10.0,WNW,8.1,-,N/A,,Mostly Cloudy,290,2012-10-05 13:35:00
8:55 AM,37.4,26.6,65,30.34,10.0,WNW,8.1,-,N/A,,Scattered Clouds,290,2012-10-05 13:55:00
9:15 AM,37.4,26.6,65,30.34,10.0,WNW,9.2,-,N/A,,Scattered Clouds,290,2012-10-05 14:15:00
9:35 AM,39.2,26.6,61,30.34,10.0,WNW,12.7,-,N/A,,Mostly Cloudy,300,2012-10-05 14:35:00
9:55 AM,39.2,26.6,61,30.34,10.0,WNW,12.7,-,N/A,,Mostly Cloudy,300,2012-10-05 14:55:00
10:15 AM,41.0,24.8,53,30.35,10.0,WNW,15.0,-,N/A,,Scattered Clouds,300,2012-10-05 15:15:00
10:35 AM,41.0,24.8,53,30.36,10.0,NW,12.7,-,N/A,,Mostly Cloudy,310,2012-10-05 15:35:00
10:55 AM,41.0,24.8,53,30.36,10.0,WNW,15.0,-,N/A,,Mostly Cloudy,300,2012-10-05 15:55:00
11:35 AM,42.8,24.8,49,30.36,10.0,WNW,11.5,16.1,N/A,,Scattered Clouds,300,2012-10-05 16:35:00
12:15 PM,42.8,23.0,46,30.36,10.0,WNW,16.1,-,N/A,,Clear,300,2012-10-05 17:15:00
12:35 PM,44.6,23.0,43,30.36,10.0,WNW,18.4,23.0,N/A,,Clear,300,2012-10-05 17:35:00
12:55 PM,46.4,24.8,43,30.35,10.0,WNW,17.3,24.2,N/A,,Clear,300,2012-10-05 17:55:00
1:35 PM,46.4,23.0,40,30.34,10.0,WNW,12.7,21.9,N/A,,Clear,300,2012-10-05 18:35:00
1:55 PM,48.2,23.0,37,30.32,10.0,NW,17.3,20.7,N/A,,Clear,310,2012-10-05 18:55:00
2:15 PM,48.2,23.0,37,30.31,10.0,WNW,10.4,21.9,N/A,,Clear,300,2012-10-05 19:15:00
2:35 PM,50.0,23.0,35,30.30,10.0,NW,13.8,19.6,N/A,,Clear,310,2012-10-05 19:35:00
2:55 PM,51.8,21.2,30,30.29,10.0,NW,15.0,23.0,N/A,,Clear,310,2012-10-05 19:55:00
3:15 PM,51.8,21.2,30,30.28,10.0,WNW,12.7,25.3,N/A,,Clear,300,2012-10-05 20:15:00
3:35 PM,50.0,21.2,32,30.28,10.0,WNW,11.5,17.3,N/A,,Clear,300,2012-10-05 20:35:00
3:55 PM,51.8,21.2,30,30.28,10.0,WNW,17.3,21.9,N/A,,Clear,300,2012-10-05 20:55:00
4:15 PM,51.8,21.2,30,30.28,10.0,NW,13.8,18.4,N/A,,Clear,310,2012-10-05 21:15:00
4:35 PM,51.8,21.2,30,30.28,10.0,NNW,12.7,-,N/A,,Clear,330,2012-10-05 21:35:00
4:55 PM,51.8,21.2,30,30.27,10.0,WNW,15.0,-,N/A,,Clear,300,2012-10-05 21:55:00
5:15 PM,51.8,21.2,30,30.27,10.0,NW,10.4,19.6,N/A,,Clear,310,2012-10-05 22:15:00
5:35 PM,51.8,21.2,30,30.27,10.0,NW,12.7,18.4,N/A,,Clear,320,2012-10-05 22:35:00
5:55 PM,51.8,21.2,30,30.27,10.0,NW,15.0,-,N/A,,Clear,310,2012-10-05 22:55:00
6:15 PM,50.0,19.4,30,30.28,10.0,NW,12.7,-,N/A,,Clear,310,2012-10-05 23:15:00
6:35 PM,48.2,19.4,32,30.28,10.0,NW,13.8,-,N/A,,Clear,310,2012-10-05 23:35:00
6:55 PM,46.4,19.4,34,30.28,10.0,NW,5.8,-,N/A,,Clear,310,2012-10-05 23:55:00
7:15 PM,42.8,19.4,39,30.28,10.0,WNW,5.8,-,N/A,,Clear,300,2012-10-06 00:15:00
7:35 PM,42.8,19.4,39,30.29,10.0,WNW,4.6,-,N/A,,Clear,290,2012-10-06 00:35:00
7:55 PM,39.2,17.6,42,30.29,10.0,West,4.6,-,N/A,,Clear,280,2012-10-06 00:55:00
8:15 PM,39.2,19.4,45,30.29,10.0,WNW,4.6,-,N/A,,Clear,300,2012-10-06 01:15:00
8:35 PM,37.4,19.4,48,30.29,10.0,NW,5.8,-,N/A,,Clear,310,2012-10-06 01:35:00
8:55 PM,39.2,19.4,45,30.30,10.0,NW,6.9,-,N/A,,Clear,310,2012-10-06 01:55:00
9:15 PM,39.2,19.4,45,30.30,10.0,WNW,5.8,-,N/A,,Clear,300,2012-10-06 02:15:00
9:35 PM,39.2,19.4,45,30.31,10.0,WNW,5.8,-,N/A,,Clear,300,2012-10-06 02:35:00
9:55 PM,37.4,19.4,48,30.31,10.0,WNW,5.8,-,N/A,,Clear,290,2012-10-06 02:55:00
10:35 PM,35.6,19.4,52,30.32,10.0,WNW,5.8,-,N/A,,Clear,290,2012-10-06 03:35:00
10:55 PM,37.4,19.4,48,30.32,10.0,West,5.8,-,N/A,,Mostly Cloudy,270,2012-10-06 03:55:00
11:15 PM,37.4,21.2,52,30.33,10.0,West,4.6,-,N/A,,Overcast,260,2012-10-06 04:15:00
11:35 PM,37.4,21.2,52,30.33,10.0,West,5.8,-,N/A,,Overcast,260,2012-10-06 04:35:00
11:55 PM,39.2,19.4,45,30.33,10.0,West,5.8,-,N/A,,Overcast,280,2012-10-06 04:55:00